Weather History for KVYS - April, 2012

Change the Weather History Date:

Saturday, April 7, 2012

  Actual Average Record
Temperature  
Mean Temperature 48 °F -  
Max Temperature 65 °F 59 °F 85 °F (1991)
Min Temperature 32 °F 34 °F 13 °F (1982)
Degree Days  
Heating Degree Days 16    
Moisture  
Dew Point 32 °F    
Average Humidity 53    
Maximum Humidity 87    
Minimum Humidity 29    
Precipitation  
Precipitation 0.00 in - - ()
Sea Level Pressure  
Sea Level Pressure 30.21 in    
Wind  
Wind Speed 7 mph (South)    
Max Wind Speed 16 mph    
Max Gust Speed 23 mph    
Visibility 10 miles    
Events Rain    
Averages and records for this station are not official NWS values.
T = Trace of Precipitation, MM = Missing Value Source: NWS Daily Summary

Daily Weather History Graph

Daily Weather History Graph

Search for Another Location

Airport or City:

Trip Planner

Search our weather history database for the weather conditions in past years. The results will help you decide how hot, cold, wet, or windy it might be!

Date:

Astronomy

Apr. 07, 2012 Rise Set
Actual Time 6:28 AM CDT 7:28 PM CDT
Civil Twilight 6:00 AM CDT 7:57 PM CDT
Nautical Twilight 5:27 AM CDT 8:30 PM CDT
Astronomical Twilight 4:52 AM CDT 9:05 PM CDT
Moon 9:04 PM CDT (4/7) 6:39 AM CDT (4/7)
Length of Visible Light 13h 56m
Length of Day
12h 59m
Full, 99% of the Moon is Illuminated
Apr 7
Full
Apr 13
Last Quarter
Apr 21
New
Apr 29
First Quarter
May 5
Full

Hourly Weather History & Observations

Time (CDT) Temp. Windchill Dew Point Humidity Pressure Visibility Wind Dir Wind Speed Gust Speed Precip Events Conditions
12:15 AM 42.4 °F 36.5 °F 31.1 °F 64% 30.20 in 10.0 mi East 10.4 mph - N/A   Clear
12:35 AM 43.5 °F 38.3 °F 31.8 °F 63% 30.20 in 10.0 mi East 9.2 mph - N/A   Clear
12:55 AM 42.4 °F 37.0 °F 31.6 °F 66% 30.20 in 10.0 mi East 9.2 mph - N/A   Clear
1:15 AM 42.1 °F 37.1 °F 32.0 °F 67% 30.21 in 10.0 mi East 8.1 mph - N/A   Clear
1:35 AM 41.4 °F 36.2 °F 32.0 °F 69% 30.20 in 10.0 mi East 8.1 mph - N/A   Clear
1:55 AM 41.0 °F 37.1 °F 32.0 °F 70% 30.21 in 10.0 mi East 5.8 mph - N/A   Clear
2:15 AM 39.7 °F 36.5 °F 31.8 °F 73% 30.20 in 10.0 mi East 4.6 mph - N/A   Clear
2:35 AM 39.6 °F - 32.0 °F 74% 30.21 in 10.0 mi Calm Calm - N/A   Clear
2:55 AM 38.8 °F - 32.0 °F 76% 30.21 in 10.0 mi Calm Calm - N/A   Clear
3:15 AM 38.3 °F - 31.1 °F 75% 30.21 in 10.0 mi Calm Calm - N/A   Clear
3:35 AM 38.3 °F 34.8 °F 32.0 °F 78% 30.21 in 10.0 mi ESE 4.6 mph - N/A   Clear
3:55 AM 38.5 °F - 31.3 °F 75% 30.23 in 10.0 mi Calm Calm - N/A   Clear
4:15 AM 34.9 °F - 28.8 °F 78% 30.23 in 10.0 mi Calm Calm - N/A   Clear
4:35 AM 34.0 °F - 29.7 °F 84% 30.23 in 10.0 mi Calm Calm - N/A   Clear
4:55 AM 34.3 °F - 29.3 °F 82% 30.24 in 10.0 mi Calm Calm - N/A   Clear
5:15 AM 33.3 °F 28.9 °F 28.4 °F 82% 30.24 in 10.0 mi NNE 4.6 mph - N/A   Clear
5:35 AM 32.0 °F 27.5 °F 27.3 °F 83% 30.25 in 10.0 mi NNE 4.6 mph - N/A   Clear
5:55 AM 32.0 °F 27.5 °F 27.5 °F 83% 30.25 in 10.0 mi NE 4.6 mph - N/A   Clear
6:15 AM 32.5 °F 29.3 °F 28.4 °F 85% 30.25 in 10.0 mi NE 3.5 mph - N/A   Clear
6:35 AM 33.4 °F 30.4 °F 29.5 °F 85% 30.27 in 10.0 mi NE 3.5 mph - N/A   Clear
6:55 AM 34.0 °F 29.8 °F 30.0 °F 85% 30.28 in 10.0 mi NE 4.6 mph - N/A   Clear
7:15 AM 33.8 °F 29.6 °F 30.2 °F 87% 30.27 in 10.0 mi East 4.6 mph - N/A   Clear
7:35 AM 37.6 °F 33.1 °F 32.2 °F 81% 30.26 in 10.0 mi East 5.8 mph - N/A   Clear
7:55 AM 41.7 °F 38.8 °F 32.0 °F 68% 30.26 in 10.0 mi ESE 4.6 mph - N/A   Clear
8:15 AM 44.4 °F 42.9 °F 31.6 °F 61% 30.27 in 10.0 mi SE 3.5 mph - N/A   Clear
8:35 AM 46.2 °F 43.3 °F 32.0 °F 58% 30.27 in 10.0 mi SSE 5.8 mph - N/A   Clear
8:55 AM 48.4 °F - 32.4 °F 54% 30.25 in 10.0 mi SSE 8.1 mph - N/A   Clear
9:15 AM 51.4 °F - 32.9 °F 49% 30.25 in 10.0 mi SSE 10.4 mph - N/A   Clear
9:35 AM 54.7 °F - 32.2 °F 42% 30.25 in 10.0 mi South 11.5 mph - N/A   Clear
9:55 AM 56.3 °F - 32.4 °F 40% 30.24 in 10.0 mi South 12.7 mph - N/A   Clear
10:15 AM 58.3 °F - 32.5 °F 38% 30.24 in 10.0 mi South 15.0 mph 18.4 mph N/A   Clear
10:35 AM 60.3 °F - 32.5 °F 35% 30.24 in 10.0 mi SW 16.1 mph 19.6 mph N/A   Clear
10:55 AM 61.2 °F - 32.7 °F 34% 30.24 in 10.0 mi SW 15.0 mph - N/A   Clear
11:15 AM 62.1 °F - 33.1 °F 34% 30.24 in 10.0 mi SW 11.5 mph - N/A   Clear
11:35 AM 62.8 °F - 33.3 °F 33% 30.23 in 10.0 mi SSW 13.8 mph - N/A   Clear
11:55 AM 63.1 °F - 34.2 °F 34% 30.23 in 10.0 mi WSW 15.0 mph 19.6 mph N/A   Clear
12:15 PM 63.3 °F - 33.6 °F 33% 30.23 in 10.0 mi WSW 12.7 mph 23.0 mph N/A   Clear
12:35 PM 64.4 °F - 33.8 °F 32% 30.21 in 10.0 mi SSW 8.1 mph 19.6 mph N/A   Clear
12:55 PM 64.8 °F - 33.3 °F 31% 30.20 in 10.0 mi SW 8.1 mph - N/A   Clear
1:15 PM 64.9 °F - 34.2 °F 32% 30.20 in 10.0 mi WSW 13.8 mph - N/A   Clear
1:35 PM 64.9 °F - 32.5 °F 30% 30.19 in 10.0 mi WSW 11.5 mph 17.3 mph N/A   Clear
1:55 PM 65.1 °F - 32.7 °F 30% 30.18 in 10.0 mi SW 12.7 mph 18.4 mph N/A   Clear
2:15 PM 65.3 °F - 32.0 °F 29% 30.18 in 10.0 mi SW 10.4 mph 18.4 mph N/A   Clear
2:35 PM 65.3 °F - 32.7 °F 30% 30.16 in 10.0 mi SW 8.1 mph - N/A   Clear
2:55 PM 65.7 °F - 32.7 °F 29% 30.16 in 10.0 mi SW 9.2 mph - N/A   Clear
3:15 PM 65.5 °F - 32.4 °F 29% 30.15 in 10.0 mi South 9.2 mph - N/A   Clear
3:35 PM 64.9 °F - 33.4 °F 31% 30.14 in 10.0 mi SW 9.2 mph - N/A   Clear
3:55 PM 64.4 °F - 34.7 °F 33% 30.14 in 10.0 mi SW 9.2 mph - N/A   Clear
4:15 PM 64.2 °F - 32.7 °F 31% 30.13 in 10.0 mi SSW 11.5 mph - N/A   Scattered Clouds
4:35 PM 63.7 °F - 33.6 °F 33% 30.13 in 10.0 mi SW 8.1 mph - N/A   Mostly Cloudy
4:55 PM 62.8 °F - 36.3 °F 37% 30.14 in 10.0 mi WSW 10.4 mph - N/A Rain Light Rain
5:15 PM 61.7 °F - 36.9 °F 40% 30.15 in 10.0 mi WSW 11.5 mph - N/A   Overcast
5:35 PM 62.6 °F - 35.6 °F 37% 30.16 in 10.0 mi WSW 13.8 mph - N/A   Overcast
5:55 PM 61.5 °F - 35.1 °F 37% 30.15 in 10.0 mi WSW 8.1 mph - N/A   Overcast
6:15 PM 60.8 °F - 36.3 °F 40% 30.15 in 10.0 mi WSW 10.4 mph - N/A   Overcast
6:35 PM 60.4 °F - 37.4 °F 42% 30.14 in 10.0 mi WSW 6.9 mph - N/A   Overcast
6:55 PM 59.9 °F - 38.3 °F 45% 30.14 in 10.0 mi WSW 8.1 mph - N/A   Overcast
7:15 PM 59.9 °F - 38.5 °F 45% 30.14 in 10.0 mi SW 8.1 mph - N/A   Overcast
7:35 PM 59.9 °F - 37.9 °F 44% 30.13 in 10.0 mi SW 8.1 mph - N/A   Overcast
7:55 PM 58.3 °F - 41.4 °F 53% 30.13 in 10.0 mi SW 8.1 mph - N/A Rain Light Rain
8:15 PM 58.1 °F - 39.9 °F 51% 30.13 in 10.0 mi SW 6.9 mph - N/A   Overcast
8:35 PM 58.6 °F - 40.3 °F 51% 30.15 in 10.0 mi WSW 13.8 mph - N/A   Overcast
8:55 PM 56.8 °F - 44.1 °F 62% 30.16 in 10.0 mi WSW 10.4 mph - N/A   Overcast
9:15 PM 55.6 °F - 44.8 °F 67% 30.17 in 10.0 mi WNW 13.8 mph - N/A   Overcast
9:35 PM 53.6 °F - 46.4 °F 77% 30.17 in 10.0 mi West 12.7 mph - N/A   Overcast
9:55 PM 52.7 °F - 47.8 °F 84% 30.17 in 10.0 mi WNW 11.5 mph 21.9 mph N/A   Overcast
10:15 PM 52.2 °F - 48.2 °F 86% 30.17 in 10.0 mi WNW 8.1 mph - N/A   Overcast
10:35 PM 52.2 °F - 48.2 °F 86% 30.18 in 10.0 mi WNW 9.2 mph - N/A   Overcast
10:55 PM 51.8 °F - 48.0 °F 87% 30.18 in 10.0 mi WNW 10.4 mph - N/A   Mostly Cloudy
11:15 PM 50.9 °F - 47.7 °F 89% 30.19 in 10.0 mi WNW 6.9 mph - N/A   Mostly Cloudy
11:35 PM 50.0 °F - 46.4 °F 87% 30.19 in 10.0 mi West 6.9 mph - N/A   Scattered Clouds
11:55 PM 50.9 °F - 47.8 °F 89% 30.20 in 10.0 mi WNW 10.4 mph - N/A   Mostly Cloudy